Weather History for KFTG - September, 2012

Change the Weather History Date:

Tuesday, September 18, 2012

  Actual Average (KDEN) Record (KDEN)
Temperature  
Mean Temperature 62 °F 62 °F  
Max Temperature 75 °F 78 °F 93 °F (1895)
Min Temperature 50 °F 47 °F 23 °F (1971)
Degree Days  
Heating Degree Days 2 4  
Month to date heating degree days 45  
Since 1 July heating degree days 61  
Cooling Degree Days 0 2  
Month to date cooling degree days 62  
Year to date cooling degree days 750  
Growing Degree Days 12 (Base 50)    
Moisture  
Dew Point 38 °F    
Average Humidity 53    
Maximum Humidity 71    
Minimum Humidity 19    
Precipitation  
Precipitation 0.00 in 0.03 in 1.22 in (1996)
Month to date precipitation 0.59  
Year to date precipitation 11.95  
Snow  
Snow 0.00 in - - ()
Month to date snowfall  
Since 1 July snowfall  
Since 1 September snowfall  
Snow Depth -    
Sea Level Pressure  
Sea Level Pressure 30.19 in    
Wind  
Wind Speed 9 mph (SSW)    
Max Wind Speed 13 mph    
Max Gust Speed -    
Visibility 12 miles    
Events      
T = Trace of Precipitation, MM = Missing Value Source: NWS Daily Summary

Daily Weather History Graph

Daily Weather History Graph

Search for Another Location

Airport or City:

Trip Planner

Search our weather history database for the weather conditions in past years. The results will help you decide how hot, cold, wet, or windy it might be!

Date:

Astronomy

Sep. 18, 2012 Rise Set
Actual Time 6:42 AM MDT 7:00 PM MDT
Civil Twilight 6:15 AM MDT 7:27 PM MDT
Nautical Twilight 5:43 AM MDT 7:59 PM MDT
Astronomical Twilight 5:11 AM MDT 8:31 PM MDT
Moon 9:44 AM MDT (9/18) 8:26 PM MDT (9/18)
Length of Visible Light 13h 12m
Length of Day
12h 18m
Waxing Crescent, 9% of the Moon is Illuminated
Sep 18
Waxing Crescent
Sep 22
First Quarter
Sep 29
Full
Oct 8
Last Quarter
Oct 15
New

Hourly Weather History & Observations

Time (MDT) Temp. Dew Point Humidity Pressure Visibility Wind Dir Wind Speed Gust Speed Precip Events Conditions
12:17 AM 50.0 °F 41.0 °F 71% 30.22 in 10.0 mi South 5.8 mph - N/A   Clear
12:37 AM 51.8 °F 41.0 °F 67% 30.21 in 10.0 mi SSW 10.4 mph - N/A   Clear
12:58 AM 51.8 °F 42.8 °F 71% 30.20 in 10.0 mi SSW 11.5 mph - N/A   Clear
1:38 AM 51.8 °F 41.0 °F 67% 30.20 in 10.0 mi SSW 11.5 mph - N/A   Clear
1:58 AM 51.8 °F 41.0 °F 67% 30.20 in 10.0 mi SSW 11.5 mph - N/A   Clear
2:18 AM 51.8 °F 41.0 °F 67% 30.20 in 10.0 mi SSW 10.4 mph - N/A   Clear
2:38 AM 51.8 °F 41.0 °F 67% 30.19 in 10.0 mi SSW 10.4 mph - N/A   Clear
2:58 AM 51.8 °F 41.0 °F 67% 30.19 in 10.0 mi SSW 11.5 mph - N/A   Clear
3:18 AM 51.8 °F 41.0 °F 67% 30.18 in 10.0 mi SSW 12.7 mph - N/A   Clear
3:38 AM 51.8 °F 41.0 °F 67% 30.18 in 10.0 mi SSW 10.4 mph - N/A   Clear
3:58 AM 51.8 °F 41.0 °F 67% 30.18 in 10.0 mi SSW 9.2 mph - N/A   Clear
4:19 AM 51.8 °F 41.0 °F 67% 30.18 in 10.0 mi SSW 12.7 mph - N/A   Clear
4:39 AM 51.8 °F 41.0 °F 67% 30.18 in 10.0 mi SW 11.5 mph - N/A   Clear
4:59 AM 51.8 °F 41.0 °F 67% 30.19 in 10.0 mi SW 10.4 mph - N/A   Clear
5:19 AM 51.8 °F 41.0 °F 67% 30.19 in 10.0 mi SW 9.2 mph - N/A   Clear
5:39 AM 51.8 °F 41.0 °F 67% 30.19 in 10.0 mi SW 10.4 mph - N/A   Clear
5:59 AM 51.8 °F 41.0 °F 67% 30.20 in 10.0 mi SW 10.4 mph - N/A   Clear
6:19 AM 51.8 °F 41.0 °F 67% 30.20 in 10.0 mi SSW 9.2 mph - N/A   Clear
6:38 AM 51.8 °F 39.2 °F 62% 30.20 in 10.0 mi SW 9.2 mph - N/A   Clear
6:53 AM 51.8 °F 39.2 °F 62% 30.21 in 10.0 mi SW 9.2 mph - N/A   Clear
7:47 AM 53.6 °F 39.2 °F 58% 30.23 in 20.0 mi SSW 10.4 mph - N/A   Clear
8:47 AM 59.0 °F 41.0 °F 51% 30.24 in 20.0 mi SW 10.4 mph - N/A   Clear
9:47 AM 66.2 °F 39.2 °F 37% 30.24 in 20.0 mi WSW 4.6 mph - N/A   Clear
10:50 AM 69.8 °F 33.8 °F 27% 30.24 in 20.0 mi Calm Calm - N/A   Clear
11:50 AM 68.0 °F 33.8 °F 28% 30.24 in 20.0 mi Calm Calm - N/A   Clear
12:47 PM 73.4 °F 30.2 °F 20% 30.21 in 20.0 mi Calm Calm - N/A   Clear
1:52 PM 75.2 °F 30.2 °F 19% 30.19 in 20.0 mi North 10.4 mph - N/A   Clear
2:52 PM 75.2 °F 30.2 °F 19% 30.17 in 10.0 mi SSW 4.6 mph - N/A   Clear
9:19 PM 60.8 °F 35.6 °F 39% 30.15 in 10.0 mi South 6.9 mph - N/A   Clear
9:58 PM 60.8 °F 33.8 °F 36% 30.15 in 10.0 mi South 8.1 mph - N/A   Clear
10:18 PM 59.0 °F 35.6 °F 42% 30.15 in 10.0 mi South 8.1 mph - N/A   Clear
10:38 PM 59.0 °F 35.6 °F 42% 30.15 in 10.0 mi South 8.1 mph - N/A   Clear
10:57 PM 60.8 °F 33.8 °F 36% 30.15 in 10.0 mi South 9.2 mph - N/A   Clear
11:18 PM 60.8 °F 33.8 °F 36% 30.14 in 10.0 mi South 9.2 mph - N/A   Clear
11:58 PM 59.0 °F 35.6 °F 42% 30.14 in 10.0 mi South 10.4 mph - N/A   Clear